Dewpoint
62 63 64 65 65 66 67 70 71 71 71 71 71 70 70 70 71 71 70 70 70 70 71 71 71 71 71 70 71 69 69 68 66 66 66 67 67 69 69 70 71 70 70
62 62 63 64 65 65 64 65 70 71 70 71 70 71 70 69 67 68 69 69 66 67 69 71 71 71 70 71 70 69 68 69 67 66 66 67 68 69 69 68 69 70 69
61 62 62 62 63 64 65 65 68 69 69 70 70 70 67 66 66 64 64 66 66 65 64 66 69 70 70 71 70 70 69 68 68 67 66 67 68 68 68 68 69 69 70
60 61 61 62 63 64 65 66 66 67 67 68 69 69 67 66 66 64 65 64 64 64 64 64 66 69 70 70 70 70 69 68 68 68 67 67 67 68 68 67 67 68 69
60 61 61 62 64 63 63 63 66 67 68 68 68 68 68 66 67 64 63 62 63 61 63 64 65 69 69 69 71 70 69 68 68 68 68 67 67 66 66 67 67 67 68
60 60 61 61 62 62 61 62 64 64 67 68 67 68 68 67 63 64 64 61 62 63 63 64 66 67 67 66 67 67 69 69 68 68 68 67 68 66 66 66 65 64 64
60 60 60 60 61 61 61 61 62 63 67 67 67 67 68 68 62 60 62 63 62 63 64 65 65 66 64 65 65 65 66 66 67 70 68 68 68 67 66 64 65 64 64
59 58 60 60 60 60 61 62 61 63 64 65 66 65 67 68 62 60 61 64 64 64 65 65 65 64 64 64 64 65 67 68 68 69 70 69 69 68 68 66 66 65 65
58 59 60 60 60 61 59 62 61 63 62 63 64 64 64 65 60 60 61 65 65 65 65 65 64 63 61 60 64 65 66 68 65 63 64 64 63 62 66 67 65 64 63
55 59 60 61 61 61 61 60 60 61 63 64 64 64 62 64 56 55 60 65 65 65 65 66 63 64 60 59 65 66 66 67 68 67 65 63 64 64 62 68 66 64 63
57 59 60 61 61 61 61 61 62 64 63 63 63 63 62 62 60 55 55 65 65 65 66 66 66 57 55 54 56 67 67 67 65 67 66 66 66 66 65 66 66 66 63
57 59 60 61 61 62 60 61 62 62 63 63 63 62 62 61 57 57 55 56 59 63 63 65 60 53 52 54 58 54 56 62 65 64 64 64 64 65 66 66 66 66 66
57 57 57 59 60 61 60 60 61 61 61 61 61 60 60 62 61 55 54 55 57 62 63 60 53 50 51 54 53 54 58 64 64 63 62 62 62 64 65 65 66 66 66
57 58 58 57 59 58 56 55 54 57 59 60 58 56 54 52 56 60 62 62 59 61 61 60 58 58 56 57 58 59 62 63 63 62 62 62 63 63 63 64 63 62 62
57 58 56 56 58 55 53 52 53 51 49 55 54 53 50 50 50 46 48 55 57 55 60 61 61 62 61 61 61 61 62 62 62 61 61 61 60 61 60 60 61 60 60
55 55 53 50 49 58 57 56 50 48 46 44 45 50 50 46 44 43 43 42 43 47 56 58 59 60 60 60 60 61 61 60 58 57 56 57 57 56 56 56 58 58 57
55 52 48 49 48 49 55 55 54 54 47 44 43 42 42 43 42 43 42 43 44 48 54 57 58 58 59 56 57 58 57 57 57 56 55 56 55 55 56 56 55 56 55
51 49 47 49 49 47 48 54 55 55 53 52 47 46 45 45 45 44 43 49 54 53 55 56 55 55 55 55 55 57 56 55 54 54 55 55 55 55 55 55 55 54 55
53 52 47 49 49 47 46 46 47 46 54 54 52 49 47 44 43 43 45 53 55 56 54 55 56 55 55 55 55 56 56 56 56 55 55 55 55 55 53 53 53 51 52
54 54 51 50 50 48 48 47 48 48 47 54 53 53 52 52 53 54 54 54 54 56 56 52 55 55 56 56 55 55 55 55 55 55 55 55 56 56 55 54 53 52 52
50 51 52 49 49 49 49 48 49 50 50 49 50 51 47 52 52 52 52 53 53 54 55 54 56 56 57 56 55 55 55 55 55 55 55 55 56 55 56 54 53 54 53
50 48 48 48 47 47 45 45 49 50 51 50 51 49 46 50 50 49 50 50 50 52 55 55 53 52 52 51 52 51 50 49 50 51 53 54 54 53 54 54 53 52 52
51 47 43 42 40 42 41 44 46 49 49 49 50 49 49 49 49 49 49 49 49 49 52 53 51 48 46 46 46 46 45 45 46 46 48 51 53 55 54 53 53 53 52
46 43 39 36 35 35 35 37 38 40 46 47 48 49 49 49 49 49 49 48 48 48 48 50 48 45 44 43 42 42 42 44 45 45 46 47 49 51 53 53 54 54 53
37 37 37 35 33 33 32 33 34 35 37 35 34 38 41 49 48 48 47 47 46 44 45 47 46 43 42 41 40 40 36 33 38 37 44 47 48 48 49 50 52 54 54
33 33 33 33 33 32 33 34 34 35 35 36 35 35 35 36 41 46 47 46 44 44 44 44 46 42 41 40 39 35 31 30 34 32 41 44 43 44 43 43 44 47 50
Lifted_Index
3 3 2 2 1 0 -1 -2 -3 -4 -5 -5 -5 -5 -5 -5 -5 -4 -3 -3 -3 -3 -4 -4 -4 -4 -4 -4 -4 -4 -4 -3 -3 -2 -2 -3 -3 -4 -4 -4 -4 -4 -4
3 3 2 2 2 1 0 -1 -3 -4 -5 -5 -5 -5 -5 -5 -4 -3 -2 -1 -1 -2 -3 -3 -3 -4 -4 -4 -4 -4 -4 -4 -3 -3 -2 -3 -3 -4 -4 -4 -4 -4 -4
3 3 3 2 2 1 1 -1 -3 -4 -5 -5 -5 -5 -5 -5 -4 -3 -0 1 1 -0 -2 -2 -3 -3 -4 -4 -4 -4 -4 -4 -3 -3 -3 -3 -3 -4 -4 -4 -4 -4 -4
3 3 3 2 2 1 0 -1 -2 -3 -4 -5 -5 -6 -6 -5 -5 -3 -1 1 1 1 0 -1 -2 -3 -4 -4 -4 -4 -4 -4 -4 -3 -4 -4 -4 -4 -4 -4 -4 -4 -4
3 3 2 2 1 1 1 -0 -1 -2 -4 -4 -5 -6 -6 -6 -5 -4 -2 0 1 2 1 0 -1 -2 -4 -4 -5 -5 -5 -4 -4 -4 -4 -4 -4 -4 -4 -3 -3 -3 -3
3 2 2 2 2 1 1 1 0 -1 -3 -5 -5 -5 -5 -5 -5 -4 -3 -1 1 2 2 1 -0 -2 -3 -4 -4 -5 -5 -5 -4 -4 -4 -4 -3 -3 -3 -3 -3 -3 -3
2 2 2 2 2 2 2 1 1 -0 -3 -4 -5 -5 -5 -5 -5 -4 -3 -1 1 2 2 2 1 -0 -1 -2 -3 -4 -4 -4 -4 -5 -4 -4 -3 -3 -3 -2 -2 -2 -2
2 2 2 2 2 2 2 1 1 -0 -2 -4 -4 -4 -4 -4 -4 -4 -3 -2 -1 0 1 1 1 0 0 -0 -1 -2 -3 -3 -4 -4 -4 -4 -3 -3 -2 -2 -2 -2 -2
2 2 2 2 2 2 2 2 1 -0 -2 -2 -3 -3 -3 -4 -3 -3 -3 -3 -3 -2 -2 -2 -1 -1 -0 -0 -0 -0 -1 -2 -3 -3 -3 -3 -3 -2 -2 -2 -1 -1 -1
2 2 1 1 2 2 2 2 1 -0 -1 -2 -2 -2 -3 -3 -3 -3 -3 -3 -4 -4 -4 -3 -3 -2 -2 -1 -1 -1 -1 -2 -2 -2 -2 -2 -2 -2 -2 -2 -1 -1 -0
3 2 1 1 1 2 2 2 1 -0 -1 -1 -2 -2 -2 -2 -2 -3 -3 -3 -3 -3 -3 -3 -3 -3 -3 -2 -2 -1 -2 -2 -2 -2 -2 -2 -2 -2 -1 -1 -1 -0 0
2 2 1 1 1 1 1 2 1 1 0 -0 -0 -1 -1 -1 -2 -2 -2 -3 -3 -3 -2 -2 -2 -2 -2 -2 -1 -1 -2 -2 -1 -1 -1 -1 -1 -0 -0 -0 0 0 1
2 2 1 1 1 1 1 1 1 1 1 1 1 0 0 -0 -1 -1 -2 -2 -2 -2 -2 -1 -1 -1 -1 -1 -0 -0 -0 -0 -0 -1 -0 0 1 1 0 1 1 1 1
2 2 1 1 1 1 1 1 1 1 2 3 3 3 3 2 2 1 0 -0 -1 -1 -1 -0 0 0 -0 0 0 1 1 1 1 1 1 1 1 1 1 1 1 1 1
2 2 2 2 1 1 1 1 1 2 3 3 4 4 4 4 4 4 3 2 1 -0 0 1 1 1 0 0 1 1 1 1 1 1 1 1 1 1 1 1 1 1 1
2 2 3 3 2 1 1 1 2 2 3 3 4 4 4 4 4 4 3 2 1 1 1 1 1 1 1 1 0 0 1 1 2 2 2 2 2 2 2 2 2 2 2
2 2 3 4 3 2 2 2 2 2 3 3 3 3 3 3 3 3 3 2 1 1 1 1 1 1 1 1 1 1 2 2 3 3 3 3 3 3 4 4 3 3 3
1 2 3 3 3 3 3 3 3 3 3 3 4 4 4 4 4 3 3 2 2 2 2 2 2 2 2 2 2 3 3 3 4 4 4 4 4 4 4 5 5 5 5
0 1 2 3 3 3 4 4 4 3 3 3 3 3 4 4 4 3 3 3 3 2 2 2 3 3 3 3 4 4 4 4 4 4 4 4 4 4 5 5 5 5 5
0 1 2 2 3 3 3 4 4 4 3 3 3 3 3 3 3 3 3 3 3 3 3 2 2 3 3 4 4 4 4 4 4 4 4 4 4 4 4 4 5 5 5
1 1 2 2 3 3 3 4 3 3 3 3 2 3 3 3 3 3 3 3 3 3 3 2 2 2 2 3 3 4 4 4 4 4 4 4 4 3 3 4 4 4 4
2 2 2 3 3 3 4 4 4 4 3 3 3 3 4 4 4 4 4 4 4 3 3 3 2 2 2 2 2 3 3 3 3 3 3 3 3 3 3 3 3 4 4
2 2 2 3 3 3 4 4 4 4 4 4 4 5 5 5 5 5 5 5 5 5 4 4 3 3 3 3 3 2 3 3 3 3 3 3 3 3 3 3 3 3 3
2 2 2 3 3 4 4 5 5 5 5 6 6 6 6 6 6 6 6 7 7 7 7 6 5 5 5 5 5 4 4 4 4 4 4 4 4 3 3 3 3 3 3
3 3 3 3 4 5 5 6 6 7 7 7 7 8 8 8 8 8 8 8 9 9 10 9 8 8 7 7 7 7 7 7 7 7 7 7 6 6 5 5 4 4 4
4 3 4 4 5 5 6 7 7 8 8 8 9 9 9 9 9 9 9 9 9 10 11 11 10 10 9 9 9 9 9 9 9 9 9 9 8 8 8 7 6 5 4